MET5914 - Philadelphia to Boston

Embraer ERJ-145LR
159AG
1 hr 15 mins
244 nm
Scheduled - Daily

Bid/PiRep Status

Bid was submitted on December 21st, 2016 15:58 UTC.
PiRep # 74430: Approved by Sean Doyle on December 23rd, 2016 9:06 UTC

Departure

Departing from
Philadelphia (PHL)
Departure gate
Scheduled Departure
GMT 1445
Local 1045
METAR KPHL 182254Z 33009KT 10SM CLR 01/M12 A3005 RMK AO2 PRESRR SLP175 T00061122
TAF KPHL 182054Z 1821/1924 30010KT P6SM SKC FM190600 26009KT P6SM SKC FM192000 23006KT P6SM SKC

Route Map

Planning Resources

KPHL-BRAND-RBV-JOANI-CREEL-SHLEP-HOFFI-HTO-SEY-BURDY-KBOS
DITCH V312 DRIFT V139 MANTA V308 ORW V16 WOONS
BRAND DCT RBV DCT JOANI DCT CREEL DCT SHLEP DCT HOFFI DCT HTO DCT SEY DCT BURDY DCT
PHLS DITCH V312 DRIFT V308 ORW WOONS
DITCH V312 DRIFT V139 PLUME V268 KOPPY V308 RICED V139 BEDYA V268 SHLEP V139 BEADS V308 ORW WOONS
Route:
OFP Layout:
Units:
Detailed Navlog:
ETOPS Planning:
Plan Stepclimbs:
Runway Analysis:
Include NOTAMS:
FIR NOTAMS:
Flight Maps:

Return Flights

MET5911
Embraer ERJ-145LR
0300 GMT
MET5913
Embraer ERJ-145LR
1200 GMT
MET5915
Bombardier Dash-8-Q400
2245 GMT
MET5915
Boeing 757-200W
0055 GMT
MET5917
Embraer ERJ-145LR
1900 GMT

Popularity

Hub Current Bids PiReps this month Total PiReps
KLAX 0 0 3
KBOS 0 0 4
KDFW 0 0 0